�������l�o���
Date,Time,MP-1(��Sv/h),MP-2(��Sv/h),MP-3(��Sv/h),MP-4(��Sv/h),MP-5(��Sv/h),MP-6(��Sv/h),MP-7(��Sv/h),MP-8(��Sv/h),����,����(m/s),���J
2016/03/06,00:00,1.655,2.642,2.677,2.467,2.644,0.701,1.270,1.104,�쐼,1.9,��
2016/03/06,00:10,1.653,2.642,2.680,2.470,2.643,0.701,1.267,1.102,�쐼,2.2,��
2016/03/06,00:20,1.652,2.640,2.680,2.470,2.641,0.699,1.269,1.102,��쐼,2.3,��
2016/03/06,00:30,1.655,2.642,2.678,2.470,2.645,0.699,1.268,1.101,��쐼,2.0,��
2016/03/06,00:40,1.655,2.642,2.676,2.469,2.642,0.699,1.268,1.103,��쐼,2.3,��
2016/03/06,00:50,1.655,2.647,2.681,2.471,2.642,0.699,1.270,1.101,��쐼,2.3,��
2016/03/06,01:00,1.653,2.643,2.680,2.468,2.642,0.701,1.269,1.103,��쐼,2.6,��
2016/03/06,01:10,1.653,2.642,2.678,2.466,2.641,0.699,1.269,1.103,��쐼,2.2,��
2016/03/06,01:20,1.655,2.643,2.680,2.466,2.641,0.702,1.269,1.102,��,1.7,��
2016/03/06,01:30,1.655,2.645,2.679,2.472,2.644,0.700,1.267,1.102,��,1.9,��
2016/03/06,01:40,1.655,2.642,2.681,2.467,2.643,0.700,1.268,1.103,��,1.4,��
2016/03/06,01:50,1.652,2.642,2.678,2.469,2.645,0.698,1.269,1.104,��쐼,1.2,��
2016/03/06,02:00,1.652,2.643,2.678,2.469,2.644,0.700,1.269,1.102,��쐼,0.6,��
2016/03/06,02:10,1.652,2.643,2.681,2.469,2.645,0.700,1.268,1.102,�쐼,0.6,��
2016/03/06,02:20,1.657,2.642,2.679,2.467,2.645,0.702,1.269,1.102,�쐼,1.4,��
2016/03/06,02:30,1.655,2.640,2.683,2.471,2.641,0.701,1.268,1.101,��쐼,0.9,��
2016/03/06,02:40,1.657,2.642,2.682,2.467,2.641,0.699,1.267,1.102,��,1.5,��
2016/03/06,02:50,1.655,2.643,2.680,2.468,2.645,0.700,1.269,1.102,��쐼,1.2,�L
2016/03/06,03:00,1.655,2.642,2.678,2.470,2.641,0.701,1.267,1.102,��,1.1,�L
2016/03/06,03:10,1.657,2.638,2.680,2.471,2.642,0.699,1.269,1.102,��쓌,1.2,�L
2016/03/06,03:20,1.658,2.642,2.682,2.470,2.640,0.701,1.269,1.103,�쓌,0.9,��
2016/03/06,03:30,1.658,2.640,2.680,2.470,2.643,0.700,1.269,1.103,��쓌,1.5,��
2016/03/06,03:40,1.655,2.642,2.678,2.469,2.644,0.700,1.269,1.102,��쓌,1.2,��
2016/03/06,03:50,1.657,2.645,2.676,2.469,2.645,0.702,1.269,1.104,�쓌,1.2,��
2016/03/06,04:00,1.655,2.645,2.679,2.471,2.644,0.700,1.270,1.102,-,CALM,��
2016/03/06,04:10,1.653,2.643,2.680,2.468,2.641,0.699,1.271,1.103,-,CALM,�L
2016/03/06,04:20,1.655,2.640,2.682,2.470,2.647,0.701,1.270,1.101,���k��,0.6,��
2016/03/06,04:30,1.657,2.642,2.679,2.469,2.644,0.700,1.269,1.104,-,CALM,�L
2016/03/06,04:40,1.655,2.640,2.677,2.466,2.643,0.701,1.269,1.103,-,CALM,�L
2016/03/06,04:50,1.657,2.643,2.679,2.469,2.641,0.700,1.271,1.102,-,CALM,�L
2016/03/06,05:00,1.653,2.637,2.681,2.466,2.640,0.701,1.270,1.102,�k�k��,0.6,��
2016/03/06,05:10,1.657,2.638,2.678,2.469,2.640,0.701,1.267,1.102,�k�k��,1.4,��
2016/03/06,05:20,1.655,2.642,2.679,2.469,2.637,0.700,1.269,1.102,�k�k��,1.4,��
2016/03/06,05:30,1.655,2.640,2.680,2.469,2.640,0.699,1.267,1.105,�k�k��,1.7,�L
2016/03/06,05:40,1.657,2.640,2.675,2.471,2.639,0.700,1.270,1.100,�k�k��,1.2,�L
2016/03/06,05:50,1.658,2.638,2.676,2.469,2.641,0.701,1.268,1.102,�k,1.1,�L
2016/03/06,06:00,1.658,2.635,2.673,2.469,2.639,0.699,1.269,1.103,�k�k��,1.7,�L
2016/03/06,06:10,1.657,2.635,2.673,2.468,2.636,0.700,1.270,1.102,�k,2.0,�L
2016/03/06,06:20,1.657,2.632,2.675,2.468,2.634,0.701,1.271,1.102,�k,2.6,�L
2016/03/06,06:30,1.652,2.633,2.671,2.466,2.633,0.699,1.269,1.102,�k�k��,2.8,�L
2016/03/06,06:40,1.653,2.632,2.668,2.463,2.633,0.699,1.269,1.102,�k�k��,3.0,�L
2016/03/06,06:50,1.655,2.630,2.666,2.464,2.629,0.699,1.268,1.103,�k�k��,2.9,�L
2016/03/06,07:00,1.652,2.625,2.659,2.466,2.629,0.699,1.267,1.102,�k�k��,4.4,�L
2016/03/06,07:10,1.653,2.625,2.661,2.461,2.626,0.701,1.267,1.100,�k�k��,4.9,�L
2016/03/06,07:20,1.650,2.625,2.662,2.464,2.626,0.699,1.268,1.101,�k�k��,5.3,�L
2016/03/06,07:30,1.653,2.625,2.659,2.461,2.626,0.699,1.269,1.101,�k�k��,5.5,�L
2016/03/06,07:40,1.655,2.627,2.661,2.458,2.625,0.697,1.265,1.101,�k�k��,5.4,��
2016/03/06,07:50,1.652,2.625,2.659,2.462,2.626,0.699,1.265,1.099,�k�k��,6.1,��
2016/03/06,08:00,1.652,2.625,2.661,2.463,2.621,0.699,1.265,1.100,�k�k��,5.8,��
2016/03/06,08:10,1.652,2.628,2.663,2.462,2.628,0.697,1.269,1.100,�k�k��,5.2,��
2016/03/06,08:20,1.650,2.622,2.656,2.460,2.625,0.698,1.268,1.100,�k�k��,5.1,�L
2016/03/06,08:30,1.650,2.625,2.661,2.461,2.623,0.699,1.267,1.104,�k�k��,4.0,�L
2016/03/06,08:40,1.652,2.625,2.660,2.460,2.624,0.698,1.267,1.099,�k�k��,3.2,�L
2016/03/06,08:50,1.648,2.625,2.663,2.455,2.625,0.696,1.267,1.102,�k�k��,3.8,�L
2016/03/06,09:00,1.652,2.625,2.659,2.458,2.628,0.697,1.269,1.100,�k�k��,3.8,�L
2016/03/06,09:10,1.650,-,2.658,2.463,2.627,0.700,1.267,1.102,�k�k��,2.6,�L
2016/03/06,09:20,1.653,-,2.665,2.460,2.629,0.701,1.267,1.103,�k�k��,2.9,��
2016/03/06,09:30,1.648,-,2.663,2.462,2.626,0.700,1.266,1.100,�k�k��,3.6,��
2016/03/06,09:40,1.650,-,2.661,2.464,2.632,0.699,1.268,1.101,�k�k��,4.7,��
2016/03/06,09:50,1.648,-,2.663,2.461,2.632,0.699,1.266,1.101,�k�k��,4.1,��
2016/03/06,10:00,1.652,-,2.666,2.462,2.632,0.701,1.265,1.101,�k,2.3,��
2016/03/06,10:10,1.650,-,2.669,2.463,2.633,0.699,1.266,1.103,�k,1.2,��
2016/03/06,10:20,1.652,-,2.666,2.463,2.634,0.701,1.267,1.104,�k�k��,0.9,��
2016/03/06,10:30,1.650,-,2.665,2.465,2.635,0.700,1.265,1.103,�k,1.5,��
2016/03/06,10:40,1.652,-,2.671,2.466,2.636,0.702,1.267,1.104,�k�k��,1.7,��
2016/03/06,10:50,1.652,-,2.672,2.463,2.637,0.701,1.266,1.102,�k,1.7,��
2016/03/06,11:00,1.650,-,2.669,2.465,2.639,0.701,1.267,1.102,�k�k��,1.9,��
2016/03/06,11:10,1.652,-,2.675,2.467,2.638,0.702,1.265,1.102,�k��,1.1,��
2016/03/06,11:20,1.652,-,2.675,2.467,2.642,0.702,1.265,1.104,�k��,1.2,��
2016/03/06,11:30,1.650,-,2.675,2.466,2.641,0.701,1.266,1.103,�k��,1.9,��
2016/03/06,11:40,1.650,-,2.673,2.468,2.641,0.700,1.265,1.104,�k��,2.6,��
2016/03/06,11:50,1.648,-,2.672,2.468,2.642,0.702,1.266,1.102,�k��,2.3,��
2016/03/06,12:00,1.650,-,2.673,2.463,2.637,0.700,1.267,1.104,���k��,2.3,��
2016/03/06,12:10,1.653,-,2.675,2.467,2.637,0.700,1.267,1.103,���k��,1.9,��
2016/03/06,12:20,1.653,-,2.675,2.467,2.634,0.700,1.265,1.106,��,1.2,��
2016/03/06,12:30,1.650,-,2.673,2.464,2.637,0.702,1.267,1.103,��,2.0,��
2016/03/06,12:40,1.652,-,2.675,2.467,2.635,0.699,1.265,1.105,��,1.2,��
2016/03/06,12:50,1.652,-,2.679,2.467,2.637,0.703,1.266,1.102,���쓌,1.5,��
2016/03/06,13:00,1.652,-,2.679,2.470,2.636,0.701,1.267,1.104,�쓌,2.6,��
2016/03/06,13:10,1.652,-,2.677,2.467,2.644,0.700,1.267,1.103,��쓌,4.4,��
2016/03/06,13:20,1.652,-,2.678,2.467,2.639,0.700,1.269,1.106,��쓌,4.6,��
2016/03/06,13:30,1.652,-,2.678,2.469,2.641,0.703,1.265,1.105,��쓌,4.2,��
2016/03/06,13:40,1.653,-,2.675,2.469,2.643,0.701,1.268,1.103,��쓌,5.3,��
2016/03/06,13:50,1.655,-,2.676,2.472,2.645,0.702,1.267,1.105,��쓌,6.4,��
2016/03/06,14:00,1.655,-,2.677,2.471,2.643,0.702,1.268,1.105,��쓌,7.5,��
2016/03/06,14:10,1.655,-,2.677,2.470,2.645,0.702,1.268,1.104,��쓌,7.0,��
2016/03/06,14:20,1.655,-,2.679,2.469,2.645,0.704,1.270,1.106,��쓌,5.6,��
2016/03/06,14:30,1.657,-,2.683,2.471,2.643,0.700,1.269,1.104,��쓌,5.5,��
2016/03/06,14:40,1.655,-,2.683,2.467,2.643,0.704,1.269,1.104,��쓌,4.3,��
2016/03/06,14:50,1.653,-,2.681,2.469,2.646,0.704,1.270,1.107,��,3.4,��
2016/03/06,15:00,1.658,-,2.680,2.472,2.649,0.704,1.268,1.106,��,3.5,��
2016/03/06,15:10,1.655,-,2.683,2.470,2.642,0.704,1.270,1.105,��,4.1,��
2016/03/06,15:20,1.653,-,2.682,2.470,2.645,0.705,1.272,1.105,��쐼,1.5,��
2016/03/06,15:30,1.655,-,2.681,2.472,2.643,0.703,1.269,1.109,�k��,2.0,��
2016/03/06,15:40,1.653,-,2.683,2.474,2.645,0.702,1.269,1.106,�k�k��,2.0,��
2016/03/06,15:50,1.655,2.635,2.681,2.471,2.643,0.703,1.269,1.106,�k�k��,1.7,��
2016/03/06,16:00,1.653,2.640,2.682,2.473,2.642,0.704,1.269,1.107,�k�k��,1.5,��
2016/03/06,16:10,1.655,2.645,2.682,2.469,2.640,0.703,1.268,1.105,�k�k��,0.9,��
2016/03/06,16:20,1.658,2.642,2.682,2.469,2.645,0.703,1.269,1.107,�k,1.5,��
2016/03/06,16:30,1.657,2.643,2.680,2.469,2.644,0.703,1.268,1.107,���k��,0.6,��
2016/03/06,16:40,1.657,2.640,2.678,2.470,2.649,0.704,1.270,1.106,�k�k��,0.9,��
2016/03/06,16:50,1.655,2.642,2.682,2.473,2.646,0.702,1.271,1.107,-,CALM,��
2016/03/06,17:00,1.655,2.637,2.682,2.470,2.642,0.704,1.267,1.104,��,0.8,��
2016/03/06,17:10,1.658,2.640,2.677,2.470,2.646,0.704,1.271,1.105,�쐼,1.2,��
2016/03/06,17:20,1.657,2.642,2.680,2.469,2.641,0.703,1.272,1.106,���쐼,1.1,��
2016/03/06,17:30,1.657,2.642,2.680,2.467,2.645,0.703,1.270,1.105,��,2.5,��
2016/03/06,17:40,1.658,2.638,2.682,2.469,2.644,0.702,1.271,1.105,��쐼,1.4,��
2016/03/06,17:50,1.657,2.638,2.682,2.469,2.644,0.705,1.270,1.103,��쐼,2.9,��
2016/03/06,18:00,1.658,2.637,2.679,2.470,2.647,0.703,1.271,1.105,��,1.7,��
2016/03/06,18:10,1.655,2.637,2.680,2.471,2.645,0.704,1.271,1.104,��쐼,2.5,��
2016/03/06,18:20,1.657,2.638,2.677,2.471,2.641,0.703,1.269,1.104,��,1.4,��
2016/03/06,18:30,1.655,2.635,2.679,2.469,2.644,0.702,1.270,1.105,��,1.7,��
2016/03/06,18:40,1.653,2.638,2.680,2.468,2.643,0.704,1.270,1.103,�쐼,1.2,��
2016/03/06,18:50,1.653,2.637,2.681,2.469,2.641,0.704,1.270,1.104,��쐼,1.7,��
2016/03/06,19:00,1.655,2.640,2.677,2.472,2.641,0.701,1.270,1.105,��쐼,2.3,��
2016/03/06,19:10,1.657,2.637,2.676,2.468,2.644,0.703,1.270,1.105,��쓌,2.6,��
2016/03/06,19:20,1.657,2.633,2.675,2.467,2.642,0.704,1.272,1.105,��쓌,5.3,��
2016/03/06,19:30,1.658,2.635,2.678,2.467,2.646,0.703,1.271,1.103,��쓌,6.0,��
2016/03/06,19:40,1.655,2.637,2.676,2.471,2.638,0.703,1.273,1.104,��,5.9,��
2016/03/06,19:50,1.657,2.633,2.681,2.469,2.638,0.704,1.273,1.106,��쐼,12.1,��
2016/03/06,20:00,1.657,2.635,2.679,2.468,2.642,0.706,1.275,1.107,��,12.8,��
2016/03/06,20:10,1.658,2.637,2.679,2.471,2.646,0.707,1.274,1.107,��,11.7,��
2016/03/06,20:20,1.658,2.637,2.686,2.475,2.645,0.706,1.274,1.106,��쐼,10.7,��
2016/03/06,20:30,1.660,2.638,2.684,2.475,2.648,0.706,1.273,1.107,��,10.3,��
2016/03/06,20:40,1.660,2.638,2.684,2.472,2.650,0.706,1.272,1.107,��,10.1,��
2016/03/06,20:50,1.662,2.638,2.685,2.477,2.646,0.707,1.274,1.110,��쐼,10.6,��
2016/03/06,21:00,1.662,2.640,2.687,2.474,2.646,0.708,1.274,1.107,��,11.7,��
2016/03/06,21:10,1.662,2.640,2.683,2.474,2.650,0.706,1.272,1.108,��,12.1,��
2016/03/06,21:20,1.665,2.640,2.684,2.475,2.649,0.708,1.272,1.105,��,10.8,��
2016/03/06,21:30,1.663,2.642,2.686,2.473,2.646,0.707,1.273,1.107,��,11.1,��
2016/03/06,21:40,1.662,2.640,2.684,2.477,2.646,0.707,1.271,1.109,��,12.1,��
2016/03/06,21:50,1.667,2.638,2.686,2.474,2.648,0.707,1.272,1.108,��,11.7,��
2016/03/06,22:00,1.665,2.640,2.684,2.471,2.648,0.707,1.272,1.107,��,12.4,��
2016/03/06,22:10,1.665,2.640,2.685,2.473,2.645,0.707,1.270,1.106,��,11.4,��
2016/03/06,22:20,1.665,2.640,2.685,2.475,2.645,0.707,1.270,1.107,��,10.7,��
2016/03/06,22:30,1.663,2.638,2.680,2.475,2.646,0.708,1.273,1.107,��,12.4,��
2016/03/06,22:40,1.667,2.638,2.681,2.476,2.644,0.707,1.271,1.109,��쐼,11.6,��
2016/03/06,22:50,1.665,2.640,2.681,2.475,2.645,0.706,1.271,1.107,��쐼,10.7,��
2016/03/06,23:00,1.665,2.642,2.686,2.475,2.645,0.708,1.274,1.108,��,12.0,��
2016/03/06,23:10,1.662,2.642,2.686,2.473,2.650,0.709,1.272,1.108,��쐼,11.9,��
2016/03/06,23:20,1.663,2.642,2.682,2.476,2.645,0.707,1.271,1.106,��,11.7,��
2016/03/06,23:30,1.665,2.640,2.684,2.475,2.643,0.707,1.270,1.109,��,11.7,��
2016/03/06,23:40,1.662,2.640,2.686,2.475,2.646,0.706,1.270,1.106,��쐼,10.9,��
2016/03/06,23:50,1.663,2.640,2.686,2.476,2.646,0.707,1.272,1.108,��쐼,12.2,��
